Home   Weather   Fort Worth   Past weeks

Flag for USA Past Weather in Fort Worth, Texas, USA — Yesterday and Last 2 Weeks

Now
49 °F

Clear.


Feels Like: 49 °F
Forecast: 49 / 79 °F
Wind: No wind

Location: Meacham International Airport

Current Time: Apr 27, 2017 at 4:29:18 am

Latest Report: Apr 27, 2017 at 3:53 am


Visibility: 10 mi

Pressure: 29.74 "Hg

Humidity: 90%

Dew Point: 46 °F

Location of Fort WorthLocation

Past Weather in Fort Worth — Graph

°F

Fort Worth Temperature Yesterday

Maximum temperature yesterday: 76 °F (at 12:53 am)
Minimum temperature yesterday: 54 °F (at 10:53 pm)
Average temperature yesterday: 65 °F

High & Low Weather Summary for the Past Weeks

 TemperatureHumidityPressure
High87 °F (Apr 25, 1:53 pm)100% (Apr 18, 1:53 am)30.23 "Hg (Apr 18, 1:53 am)
Low49 °F (Apr 23, 6:53 am)31% (Apr 23, 5:53 pm)29.38 "Hg (Apr 26, 12:53 am)
Average69 °F74%29.93 "Hg
* Reported Apr 12 2:53 am — Apr 27 2:53 am, Fort Worth, Weather by CustomWeather, © 2017

Note: Actual official high and low records may vary slightly from our data, if they occured in-between our weather recording intervals... More about our weather records

Advertising

Fort Worth Weather History for the Previous 24 Hours

Scroll right to see more
 ConditionsComfort  
Time TempWeatherWind HumidityBarometerVisibility
2:53 am
Thu, Apr 27
51 °FClear.No wind83%29.75 "Hg10 mi
1:53 am52 °FClear.No wind80%29.78 "Hg10 mi
12:53 am52 °FClear.No wind80%29.78 "Hg10 mi
11:53 pm
Wed, Apr 26
54 °FClear.No wind74%29.79 "Hg10 mi
10:53 pm54 °FClear.No wind77%29.79 "Hg10 mi
9:53 pm55 °FClear.3 mph72%29.77 "Hg10 mi
8:53 pm55 °FClear.5 mph72%29.75 "Hg10 mi
7:53 pm59 °FSunny.9 mph62%29.72 "Hg10 mi
6:53 pm62 °FPassing clouds.14 mph58%29.70 "Hg10 mi
5:53 pm62 °FPassing clouds.14 mph58%29.69 "Hg10 mi
4:53 pm62 °FOvercast.18 mph60%29.68 "Hg10 mi
4:14 pm65 °FOvercast.21 mph59%29.69 "Hg10 mi
3:53 pm63 °FPartly sunny.18 mph60%29.67 "Hg10 mi
3:02 pm62 °FPartly sunny.21 mph65%29.68 "Hg10 mi
2:53 pm63 °FScattered clouds.18 mph63%29.66 "Hg10 mi
2:32 pm62 °FBroken clouds.21 mph65%29.67 "Hg10 mi
1:53 pm59 °FOvercast.21 mph69%29.64 "Hg10 mi
12:53 pm59 °FOvercast.20 mph75%29.62 "Hg10 mi
12:37 pm59 °FOvercast.21 mph75%29.65 "Hg10 mi
11:53 am59 °FOvercast.24 mph78%29.61 "Hg10 mi
11:14 am62 °FPartly sunny.25 mph80%29.59 "Hg10 mi
10:53 am65 °FSunny.9 mph78%29.52 "Hg10 mi
10:18 am67 °FPartly sunny.9 mph76%29.55 "Hg10 mi
9:53 am67 °FMostly cloudy.12 mph79%29.51 "Hg10 mi
9:29 am65 °FMostly cloudy.12 mph85%29.52 "Hg10 mi
8:53 am64 °FMore clouds than sun.10 mph87%29.49 "Hg10 mi
8:42 am64 °FMostly cloudy.16 mph90%29.50 "Hg10 mi
8:14 am65 °FPartly sunny.10 mph91%29.49 "Hg10 mi
8:07 am65 °FBroken clouds.12 mph91%29.48 "Hg9 mi
7:31 am68 °FThundershowers. Broken clouds.14 mph90%29.47 "Hg7 mi
6:53 am73 °FMostly cloudy.8 mph94%29.44 "Hg9 mi
6:28 am74 °FThundershowers. Partly cloudy.9 mph91%29.45 "Hg10 mi
6:00 am74 °FThunderstorms. Partly cloudy.9 mph88%29.45 "Hg10 mi
4:53 am74 °FPassing clouds.8 mph88%29.40 "Hg10 mi
Weather by CustomWeather, © 2017

See weather overviewHow to use our weather pages